^^
Saratoga-Weather Station Historical Data
Daily Summary for January 5, 2020 Units:  Metric    English   Both
Daily Weekly Monthly Yearly Custom
  High: Low: Average:
Temperature: 13.2 °C 9.8 °C 11.6 °C
Dew Point: 11.3 °C 7.3 °C 9.3 °C
Humidity: 93% 73% 86%
Wind Speed: 19.5km/h 0km/h 5.6km/h
Wind Gust: 29km/h - -
Wind- - WSW
Pressure: 999.3 hPa 995.9 hPa -
Precipitation: 13.7 mm    
Historical Graphs
 
 
Tabular Data for January 5, 2020
Time Temperature Dew Point Pressure Wind Wind Speed Wind Gust Humidity Rainfall Rate (Hourly) solar
00:01 12 °C 9.6 °C 998.6 hPa WSW 4.7 km/h 9.7 km/h 85% 0.0 mm 0 W/m2
00:06 12 °C 9.6 °C 998.6 hPa WNW 7.9 km/h 8 km/h 85% 0.0 mm 0 W/m2
00:11 11.9 °C 9.6 °C 998.6 hPa West 1.4 km/h 4.8 km/h 86% 0.0 mm 0 W/m2
00:16 11.9 °C 9.6 °C 998.6 hPa WNW 3.2 km/h 9.7 km/h 86% 0.0 mm 0 W/m2
00:21 11.9 °C 9.6 °C 998.6 hPa NW 3.2 km/h 6.4 km/h 86% 0.0 mm 0 W/m2
00:26 11.9 °C 9.6 °C 998.6 hPa West 3.2 km/h 9.7 km/h 86% 0.0 mm 0 W/m2
00:31 11.8 °C 9.7 °C 998.6 hPa WSW 3.2 km/h 9.7 km/h 87% 0.0 mm 0 W/m2
00:36 11.8 °C 9.7 °C 999.0 hPa WSW 4.7 km/h 12.9 km/h 87% 0.0 mm 0 W/m2
00:41 11.7 °C 9.8 °C 999.0 hPa West 1.4 km/h 14.5 km/h 88% 0.0 mm 0 W/m2
00:46 11.7 °C 9.8 °C 999.0 hPa West 4.7 km/h 4.8 km/h 88% 0.0 mm 0 W/m2
00:51 11.7 °C 9.9 °C 999.0 hPa West 9.7 km/h 14.5 km/h 89% 0.0 mm 0 W/m2
00:56 11.7 °C 9.9 °C 999.0 hPa WNW 9.7 km/h 9.7 km/h 89% 0.0 mm 0 W/m2
01:01 11.7 °C 9.9 °C 999.0 hPa West 4.7 km/h 11.3 km/h 89% 0.0 mm 0 W/m2
01:06 11.7 °C 9.9 °C 999.0 hPa WNW 4.7 km/h 9.7 km/h 89% 0.0 mm 0 W/m2
01:11 11.7 °C 9.9 °C 999.0 hPa West 4.7 km/h 9.7 km/h 89% 0.0 mm 0 W/m2
01:16 11.6 °C 9.8 °C 999.0 hPa WNW 3.2 km/h 11.3 km/h 89% 0.0 mm 0 W/m2
01:21 11.6 °C 9.8 °C 999.0 hPa West 3.2 km/h 6.4 km/h 89% 0.0 mm 0 W/m2
01:26 11.6 °C 9.8 °C 999.0 hPa West 3.2 km/h 11.3 km/h 89% 0.0 mm 0 W/m2
01:31 11.6 °C 9.8 °C 999.0 hPa NW 3.2 km/h 6.4 km/h 89% 0.0 mm 0 W/m2
01:36 11.6 °C 9.7 °C 999.0 hPa West 3.2 km/h 11.3 km/h 88% 0.0 mm 0 W/m2
01:41 11.6 °C 9.5 °C 999.0 hPa WNW 6.4 km/h 11.3 km/h 87% 0.0 mm 0 W/m2
01:47 11.6 °C 9.5 °C 999.0 hPa West 4.7 km/h 6.4 km/h 87% 0.0 mm 0 W/m2
01:52 11.4 °C 9.1 °C 999.0 hPa WSW 6.4 km/h 6.4 km/h 86% 0.0 mm 0 W/m2
01:57 11.4 °C 9 °C 999.0 hPa WSW 6.4 km/h 9.7 km/h 85% 0.0 mm 0 W/m2
02:02 11.3 °C 8.7 °C 999.0 hPa WSW 3.2 km/h 9.7 km/h 84% 0.0 mm 0 W/m2
02:07 11.3 °C 8.7 °C 999.0 hPa West 4.7 km/h 12.9 km/h 84% 0.0 mm 0 W/m2
02:12 11.2 °C 8.6 °C 999.0 hPa West 4.7 km/h 6.4 km/h 84% 0.0 mm 0 W/m2
02:17 11.2 °C 8.6 °C 999.0 hPa WNW 7.9 km/h 12.9 km/h 84% 0.0 mm 0 W/m2
02:22 11.2 °C 8.6 °C 999.0 hPa WNW 6.4 km/h 6.4 km/h 84% 0.0 mm 0 W/m2
02:27 11.1 °C 8.5 °C 999.0 hPa WNW 6.4 km/h 6.4 km/h 84% 0.0 mm 0 W/m2
02:32 11.1 °C 8.5 °C 999.3 hPa WSW 4.7 km/h 6.4 km/h 84% 0.0 mm 0 W/m2
02:38 11.1 °C 8.7 °C 999.0 hPa West 6.4 km/h 6.4 km/h 85% 0.0 mm 0 W/m2
02:43 11.1 °C 8.7 °C 999.3 hPa WSW 4.7 km/h 14.5 km/h 85% 0.0 mm 0 W/m2
02:48 11.1 °C 8.7 °C 999.0 hPa West 4.7 km/h 16.1 km/h 85% 0.0 mm 0 W/m2
02:53 11 °C 8.6 °C 999.0 hPa WSW 7.9 km/h 12.9 km/h 85% 0.0 mm 0 W/m2
02:58 11 °C 8.4 °C 999.0 hPa NNW 4.7 km/h 16.1 km/h 84% 0.0 mm 0 W/m2
03:03 11 °C 8.4 °C 999.0 hPa WNW 3.2 km/h 6.4 km/h 84% 0.0 mm 0 W/m2
03:08 11 °C 8.4 °C 999.0 hPa West 3.2 km/h 9.7 km/h 84% 0.0 mm 0 W/m2
03:13 10.9 °C 8.3 °C 999.0 hPa WNW 4.7 km/h 12.9 km/h 84% 0.0 mm 0 W/m2
03:18 10.8 °C 8.2 °C 999.0 hPa West 3.2 km/h 6.4 km/h 84% 0.0 mm 0 W/m2
03:23 10.8 °C 8 °C 999.0 hPa West 4.7 km/h 12.9 km/h 83% 0.0 mm 0 W/m2
03:28 10.7 °C 7.9 °C 999.0 hPa West 1.4 km/h 8 km/h 83% 0.0 mm 0 W/m2
03:33 10.7 °C 7.9 °C 999.0 hPa West 3.2 km/h 9.7 km/h 83% 0.0 mm 0 W/m2
03:38 10.6 °C 7.8 °C 998.6 hPa WSW 6.4 km/h 11.3 km/h 83% 0.0 mm 0 W/m2
03:43 10.6 °C 8 °C 998.6 hPa NW 3.2 km/h 4.8 km/h 84% 0.0 mm 0 W/m2
03:48 10.5 °C 8.1 °C 998.6 hPa West 4.7 km/h 4.8 km/h 85% 0.0 mm 0 W/m2
03:53 10.4 °C 8 °C 998.6 hPa West 1.4 km/h 9.7 km/h 85% 0.0 mm 0 W/m2
03:59 10.4 °C 8.2 °C 998.6 hPa West 4.7 km/h 6.4 km/h 86% 0.0 mm 0 W/m2
04:04 10.4 °C 8.3 °C 998.6 hPa WNW 6.4 km/h 11.3 km/h 87% 0.0 mm 0 W/m2
04:09 10.3 °C 8.2 °C 998.6 hPa West 4.7 km/h 9.7 km/h 87% 0.0 mm 0 W/m2
04:14 10.3 °C 8.2 °C 998.6 hPa WSW 3.2 km/h 12.9 km/h 87% 0.0 mm 0 W/m2
04:19 10.3 °C 8.2 °C 998.6 hPa WSW 4.7 km/h 9.7 km/h 87% 0.0 mm 0 W/m2
04:24 10.3 °C 8.2 °C 998.6 hPa WSW 6.4 km/h 12.9 km/h 87% 0.0 mm 0 W/m2
04:29 10.2 °C 8.1 °C 998.6 hPa WSW 4.7 km/h 6.4 km/h 87% 0.0 mm 0 W/m2
04:34 10.2 °C 8 °C 998.6 hPa West 4.7 km/h 12.9 km/h 86% 0.0 mm 0 W/m2
04:39 10.2 °C 7.8 °C 998.6 hPa West 6.4 km/h 12.9 km/h 85% 0.0 mm 0 W/m2
04:44 10.1 °C 7.7 °C 998.6 hPa WNW 11.1 km/h 11.3 km/h 85% 0.0 mm 0 W/m2
04:49 10.1 °C 7.7 °C 998.6 hPa NNW 9.7 km/h 9.7 km/h 85% 0.0 mm 0 W/m2
04:54 10 °C 7.6 °C 998.6 hPa WSW 6.4 km/h 9.7 km/h 85% 0.0 mm 0 W/m2
04:59 10 °C 7.4 °C 998.6 hPa West 4.7 km/h 11.3 km/h 84% 0.0 mm 0 W/m2
05:04 9.9 °C 7.3 °C 998.6 hPa West 6.4 km/h 11.3 km/h 84% 0.0 mm 0 W/m2
05:09 9.9 °C 7.3 °C 998.6 hPa West 9.7 km/h 12.9 km/h 84% 0.0 mm 0 W/m2
05:14 9.9 °C 7.3 °C 998.6 hPa West 11.1 km/h 11.3 km/h 84% 0.0 mm 0 W/m2
05:19 9.9 °C 7.3 °C 998.6 hPa WSW 11.1 km/h 12.9 km/h 84% 0.0 mm 0 W/m2
05:24 9.9 °C 7.3 °C 998.6 hPa WNW 3.2 km/h 9.7 km/h 84% 0.0 mm 0 W/m2
05:29 9.9 °C 7.5 °C 998.6 hPa WSW 6.4 km/h 9.7 km/h 85% 0.0 mm 0 W/m2
05:34 9.8 °C 7.4 °C 998.6 hPa West 11.1 km/h 11.3 km/h 85% 0.0 mm 0 W/m2
05:39 9.8 °C 7.6 °C 998.6 hPa West 3.2 km/h 8 km/h 86% 0.0 mm 0 W/m2
05:44 9.8 °C 7.7 °C 999.0 hPa NW 3.2 km/h 12.9 km/h 87% 0.0 mm 5 W/m2
05:49 9.8 °C 7.7 °C 999.0 hPa WSW 9.7 km/h 11.3 km/h 87% 0.0 mm 5 W/m2
05:54 9.8 °C 7.7 °C 998.6 hPa SSW 6.4 km/h 14.5 km/h 87% 0.0 mm 7 W/m2
05:59 9.8 °C 7.9 °C 998.6 hPa WSW 7.9 km/h 12.9 km/h 88% 0.0 mm 7 W/m2
06:04 9.8 °C 7.9 °C 998.6 hPa West 1.4 km/h 9.7 km/h 88% 0.0 mm 9 W/m2
06:09 9.8 °C 7.9 °C 999.0 hPa WNW 4.7 km/h 6.4 km/h 88% 0.0 mm 12 W/m2
06:14 9.8 °C 8.1 °C 999.0 hPa West 3.2 km/h 3.2 km/h 89% 0.0 mm 18 W/m2
06:20 9.8 °C 8.1 °C 999.0 hPa West 4.7 km/h 8 km/h 89% 0.0 mm 19 W/m2
06:25 9.8 °C 8.1 °C 999.0 hPa West 6.4 km/h 9.7 km/h 89% 0.0 mm 23 W/m2
06:30 9.8 °C 8.1 °C 999.0 hPa WSW 4.7 km/h 11.3 km/h 89% 0.0 mm 28 W/m2
06:35 9.8 °C 8.1 °C 999.0 hPa West 3.2 km/h 9.7 km/h 89% 0.0 mm 33 W/m2
06:40 9.8 °C 8.1 °C 999.0 hPa Calm   3.2 km/h 89% 0.0 mm 39 W/m2
06:45 9.9 °C 8.3 °C 999.0 hPa West 3.2 km/h 9.7 km/h 90% 0.0 mm 42 W/m2
06:50 9.8 °C 8.2 °C 998.6 hPa ENE 1.4 km/h 3.2 km/h 90% 0.0 mm 53 W/m2
06:55 9.9 °C 8.3 °C 999.0 hPa ENE 3.2 km/h 6.4 km/h 90% 0.0 mm 58 W/m2
07:00 9.9 °C 8.3 °C 999.0 hPa Calm   4.8 km/h 90% 0.0 mm 62 W/m2
07:05 9.9 °C 8.3 °C 999.0 hPa WSW 3.2 km/h 4.8 km/h 90% 0.0 mm 65 W/m2
07:10 9.9 °C 8.3 °C 999.0 hPa Calm   4.8 km/h 90% 0.0 mm 58 W/m2
07:15 10.1 °C 8.7 °C 999.0 hPa Calm   8 km/h 91% 0.0 mm 62 W/m2
07:20 10.1 °C 8.5 °C 999.0 hPa WNW 1.4 km/h 6.4 km/h 90% 0.0 mm 67 W/m2
07:25 10.2 °C 8.8 °C 999.0 hPa NW 1.4 km/h 4.8 km/h 91% 0.0 mm 70 W/m2
07:30 10.3 °C 8.9 °C 999.0 hPa Calm   4.8 km/h 91% 0.0 mm 97 W/m2
07:35 10.4 °C 8.8 °C 999.0 hPa NNW 1.4 km/h 4.8 km/h 90% 0.0 mm 118 W/m2
07:40 10.4 °C 8.8 °C 999.0 hPa North 1.4 km/h 11.3 km/h 90% 0.0 mm 121 W/m2
07:45 10.6 °C 9 °C 999.0 hPa WSW 1.4 km/h 3.2 km/h 90% 0.0 mm 113 W/m2
07:50 10.7 °C 9 °C 998.6 hPa WSW 1.4 km/h 11.3 km/h 89% 0.0 mm 118 W/m2
07:55 10.7 °C 9 °C 998.6 hPa Calm   3.2 km/h 89% 0.0 mm 130 W/m2
08:00 10.8 °C 9.1 °C 999.0 hPa NW 1.4 km/h 4.8 km/h 89% 0.0 mm 111 W/m2
08:05 10.8 °C 9.1 °C 999.0 hPa NNE 3.2 km/h 3.2 km/h 89% 0.0 mm 105 W/m2
08:10 10.9 °C 9.2 °C 998.6 hPa WSW 3.2 km/h 9.7 km/h 89% 0.0 mm 121 W/m2
08:15 10.9 °C 9 °C 998.6 hPa West 13 km/h 12.9 km/h 88% 0.0 mm 169 W/m2
08:20 11 °C 9.1 °C 998.6 hPa West 9.7 km/h 9.7 km/h 88% 0.0 mm 165 W/m2
08:25 11.1 °C 9.2 °C 998.6 hPa WNW 1.4 km/h 3.2 km/h 88% 0.0 mm 160 W/m2
08:30 11.1 °C 9.2 °C 998.6 hPa WNW 4.7 km/h 4.8 km/h 88% 0.0 mm 167 W/m2
08:35 11.2 °C 9.1 °C 998.6 hPa WNW 3.2 km/h 4.8 km/h 87% 0.0 mm 169 W/m2
08:40 11.2 °C 9.1 °C 998.6 hPa North 1.4 km/h 4.8 km/h 87% 0.0 mm 149 W/m2
08:45 11.3 °C 9.2 °C 998.6 hPa NNW 4.7 km/h 6.4 km/h 87% 0.0 mm 169 W/m2
08:50 11.4 °C 9.1 °C 998.6 hPa WNW 3.2 km/h 6.4 km/h 86% 0.0 mm 181 W/m2
08:55 11.5 °C 9.2 °C 998.6 hPa WNW 3.2 km/h 4.8 km/h 86% 0.0 mm 193 W/m2
09:00 11.6 °C 9.2 °C 998.6 hPa NNW 6.4 km/h 11.3 km/h 85% 0.0 mm 234 W/m2
09:05 11.7 °C 9.4 °C 998.6 hPa Calm   4.8 km/h 86% 0.0 mm 197 W/m2
09:10 11.8 °C 9.4 °C 998.6 hPa Calm   8 km/h 85% 0.0 mm 151 W/m2
09:15 11.8 °C 9.2 °C 998.3 hPa NNE 3.2 km/h 6.4 km/h 84% 0.0 mm 172 W/m2
09:20 11.8 °C 9.2 °C 998.3 hPa NW 3.2 km/h 6.4 km/h 84% 0.0 mm 232 W/m2
09:25 11.9 °C 9.3 °C 998.3 hPa SW 1.4 km/h 12.9 km/h 84% 0.0 mm 338 W/m2
09:31 12 °C 9.4 °C 998.3 hPa NE 1.4 km/h 4.8 km/h 84% 0.0 mm 281 W/m2
09:36 12.2 °C 9.4 °C 998.3 hPa NNE 4.7 km/h 12.9 km/h 83% 0.0 mm 264 W/m2
09:41 12.3 °C 9.1 °C 998.3 hPa WNW 6.4 km/h 9.7 km/h 81% 0.0 mm 206 W/m2
09:46 12.3 °C 9.1 °C 998.3 hPa WSW 3.2 km/h 6.4 km/h 81% 0.0 mm 137 W/m2
09:51 12.3 °C 9.1 °C 998.3 hPa SSW 1.4 km/h 3.2 km/h 81% 0.0 mm 146 W/m2
09:56 12.3 °C 8.9 °C 998.3 hPa SSE 6.4 km/h 6.4 km/h 80% 0.0 mm 174 W/m2
10:01 12.5 °C 9 °C 998.0 hPa NNW 7.9 km/h 8 km/h 79% 0.0 mm 297 W/m2
10:06 12.6 °C 9.1 °C 998.0 hPa WSW 17.7 km/h 20.9 km/h 79% 0.0 mm 334 W/m2
10:11 12.6 °C 9.1 °C 998.0 hPa NNE 4.7 km/h 4.8 km/h 79% 0.0 mm 239 W/m2
10:16 12.7 °C 8.8 °C 998.0 hPa SW 4.7 km/h 17.7 km/h 77% 0.0 mm 258 W/m2
10:21 12.9 °C 9 °C 998.0 hPa South 6.4 km/h 9.7 km/h 77% 0.0 mm 276 W/m2
10:26 13 °C 8.7 °C 998.0 hPa WNW 4.7 km/h 11.3 km/h 75% 0.0 mm 404 W/m2
10:31 13.1 °C 8.6 °C 998.0 hPa Calm   9.7 km/h 74% 0.0 mm 137 W/m2
10:36 13.1 °C 8.6 °C 998.0 hPa West 3.2 km/h 3.2 km/h 74% 0.0 mm 93 W/m2
10:41 12.9 °C 8.6 °C 998.0 hPa ENE 4.7 km/h 6.4 km/h 75% 0.0 mm 83 W/m2
10:46 12.8 °C 8.5 °C 998.0 hPa East 3.2 km/h 11.3 km/h 75% 0.0 mm 35 W/m2
10:51 12.5 °C 8.2 °C 998.0 hPa NW 3.2 km/h 8 km/h 75% 0.0 mm 33 W/m2
10:56 12.3 °C 8.2 °C 997.6 hPa West 1.4 km/h 4.8 km/h 76% 0.0 mm 79 W/m2
11:01 12.3 °C 8.4 °C 997.6 hPa NNW 3.2 km/h 8 km/h 77% 0.0 mm 243 W/m2
11:06 12.4 °C 8.5 °C 997.6 hPa WSW 1.4 km/h 17.7 km/h 77% 0.0 mm 323 W/m2
11:11 12.7 °C 8.8 °C 997.6 hPa WNW 4.7 km/h 9.7 km/h 77% 0.0 mm 693 W/m2
11:16 13 °C 8.9 °C 997.6 hPa NNW 1.4 km/h 4.8 km/h 76% 0.0 mm 292 W/m2
11:21 13.1 °C 8.8 °C 997.3 hPa ENE 3.2 km/h 12.9 km/h 75% 0.0 mm 345 W/m2
11:26 13.2 °C 8.5 °C 997.3 hPa NNW 13 km/h 14.5 km/h 73% 0.0 mm 302 W/m2
11:31 13.2 °C 8.5 °C 997.3 hPa SW 4.7 km/h 14.5 km/h 73% 0.0 mm 114 W/m2
11:36 13.1 °C 8.6 °C 997.3 hPa WNW 4.7 km/h 12.9 km/h 74% 0.0 mm 160 W/m2
11:41 12.8 °C 8.3 °C 997.3 hPa SW 3.2 km/h 11.3 km/h 74% 0.0 mm 283 W/m2
11:46 12.9 °C 8.6 °C 997.3 hPa NNW 1.4 km/h 11.3 km/h 75% 0.0 mm 221 W/m2
11:51 12.8 °C 8.3 °C 997.0 hPa WNW 17.7 km/h 17.7 km/h 74% 0.0 mm 218 W/m2
11:56 12.6 °C 8.5 °C 997.0 hPa WNW 13 km/h 14.5 km/h 76% 0.0 mm 155 W/m2
12:01 12.6 °C 8.5 °C 997.3 hPa NW 6.4 km/h 6.4 km/h 76% 0.0 mm 95 W/m2
12:06 12.4 °C 8.7 °C 997.0 hPa NW 6.4 km/h 12.9 km/h 78% 0.0 mm 179 W/m2
12:11 12.3 °C 8.8 °C 997.3 hPa NW 13 km/h 19.3 km/h 79% 0.0 mm 174 W/m2
12:16 12.3 °C 9.1 °C 997.0 hPa NW 6.4 km/h 11.3 km/h 81% 0.0 mm 285 W/m2
12:21 12.3 °C 8.9 °C 997.0 hPa NE 16.3 km/h 19.3 km/h 80% 0.0 mm 383 W/m2
12:26 12.6 °C 9.2 °C 997.0 hPa NNW 4.7 km/h 6.4 km/h 80% 0.0 mm 209 W/m2
12:31 12.6 °C 9.2 °C 997.0 hPa NE 6.4 km/h 17.7 km/h 80% 0.0 mm 241 W/m2
12:36 12.6 °C 9.2 °C 997.0 hPa NE 3.2 km/h 9.7 km/h 80% 0.0 mm 250 W/m2
12:41 12.7 °C 9.3 °C 996.6 hPa NW 13 km/h 29 km/h 80% 0.0 mm 301 W/m2
12:47 12.6 °C 9.2 °C 996.6 hPa NNW 4.7 km/h 14.5 km/h 80% 0.0 mm 327 W/m2
12:52 12.7 °C 9.5 °C 997.0 hPa ENE 4.7 km/h 12.9 km/h 81% 0.0 mm 281 W/m2
12:57 12.7 °C 9.7 °C 996.6 hPa South 6.4 km/h 6.4 km/h 82% 0.0 mm 246 W/m2
13:02 12.6 °C 9.6 °C 996.6 hPa WNW 3.2 km/h 12.9 km/h 82% 0.0 mm 255 W/m2
13:07 12.6 °C 9.6 °C 996.3 hPa NNW 6.4 km/h 19.3 km/h 82% 0.0 mm 142 W/m2
13:12 12.4 °C 9.6 °C 996.6 hPa NNW 6.4 km/h 9.7 km/h 83% 0.0 mm 95 W/m2
13:17 12.2 °C 9.6 °C 996.3 hPa North 1.4 km/h 12.9 km/h 84% 0.0 mm 134 W/m2
13:22 12.1 °C 9.5 °C 996.3 hPa ENE 1.4 km/h 11.3 km/h 84% 0.2 mm 104 W/m2
13:27 12.1 °C 9.7 °C 996.3 hPa West 3.2 km/h 11.3 km/h 85% 0.2 mm 127 W/m2
13:32 12 °C 9.7 °C 996.3 hPa ENE 7.9 km/h 11.3 km/h 86% 0.2 mm 107 W/m2
13:37 11.9 °C 9.8 °C 996.3 hPa Calm   6.4 km/h 87% 0.5 mm 114 W/m2
13:42 11.9 °C 9.8 °C 996.3 hPa East 3.2 km/h 6.4 km/h 87% 0.5 mm 114 W/m2
13:47 11.9 °C 10 °C 996.3 hPa NNW 1.4 km/h 3.2 km/h 88% 0.8 mm 104 W/m2
13:52 11.9 °C 10 °C 996.3 hPa ENE 4.7 km/h 6.4 km/h 88% 0.8 mm 90 W/m2
13:57 11.9 °C 10.1 °C 996.3 hPa North 1.4 km/h 1.6 km/h 89% 1.0 mm 97 W/m2
14:02 11.9 °C 10.1 °C 996.3 hPa NNE 6.4 km/h 9.7 km/h 89% 1.5 mm 130 W/m2
14:07 11.9 °C 10.1 °C 996.3 hPa West 4.7 km/h 6.4 km/h 89% 1.5 mm 127 W/m2
14:12 11.9 °C 10.3 °C 996.3 hPa NE 4.7 km/h 4.8 km/h 90% 1.8 mm 244 W/m2
14:17 12.1 °C 10.5 °C 996.3 hPa WSW 19.5 km/h 19.3 km/h 90% 1.8 mm 197 W/m2
14:22 12.1 °C 10.7 °C 996.3 hPa West 3.2 km/h 16.1 km/h 91% 1.8 mm 169 W/m2
14:27 12.2 °C 10.8 °C 996.3 hPa NW 16.3 km/h 19.3 km/h 91% 1.8 mm 151 W/m2
14:32 12.1 °C 10.7 °C 996.3 hPa SSW 3.2 km/h 14.5 km/h 91% 1.8 mm 105 W/m2
14:37 12 °C 10.6 °C 996.3 hPa NW 4.7 km/h 6.4 km/h 91% 1.5 mm 142 W/m2
14:42 12.1 °C 10.7 °C 996.3 hPa North 6.4 km/h 9.7 km/h 91% 1.5 mm 123 W/m2
14:47 12.1 °C 10.7 °C 996.3 hPa NNW 4.7 km/h 4.8 km/h 91% 1.5 mm 151 W/m2
14:52 12.1 °C 10.7 °C 996.3 hPa North 4.7 km/h 12.9 km/h 91% 1.5 mm 162 W/m2
14:57 12.2 °C 10.9 °C 996.3 hPa West 6.4 km/h 19.3 km/h 92% 1.0 mm 142 W/m2
15:02 12.2 °C 10.8 °C 996.3 hPa NNE 14.3 km/h 16.1 km/h 91% 1.0 mm 114 W/m2
15:07 12.2 °C 10.8 °C 996.3 hPa WNW 3.2 km/h 19.3 km/h 91% 0.8 mm 95 W/m2
15:12 12.2 °C 10.8 °C 996.3 hPa SSW 1.4 km/h 11.3 km/h 91% 1.0 mm 209 W/m2
15:17 12.3 °C 11 °C 996.3 hPa ENE 3.2 km/h 19.3 km/h 92% 1.0 mm 190 W/m2
15:22 12.4 °C 11.1 °C 996.3 hPa SSW 4.7 km/h 25.7 km/h 92% 1.0 mm 197 W/m2
15:27 12.4 °C 11.1 °C 996.3 hPa NE 4.7 km/h 11.3 km/h 92% 1.3 mm 192 W/m2
15:32 12.3 °C 11 °C 996.3 hPa NW 16.3 km/h 25.7 km/h 92% 1.5 mm 120 W/m2
15:37 12.3 °C 11 °C 996.3 hPa NW 11.1 km/h 16.1 km/h 92% 1.5 mm 114 W/m2
15:43 12.3 °C 11 °C 996.3 hPa NW 3.2 km/h 8 km/h 92% 1.5 mm 109 W/m2
15:48 12.3 °C 11 °C 996.3 hPa NW 4.7 km/h 16.1 km/h 92% 1.8 mm 146 W/m2
15:53 12.3 °C 11 °C 996.3 hPa SW 1.4 km/h 8 km/h 92% 1.8 mm 137 W/m2
15:58 12.3 °C 11 °C 996.3 hPa NW 7.9 km/h 17.7 km/h 92% 2.0 mm 77 W/m2
16:03 12.3 °C 11 °C 996.3 hPa East 1.4 km/h 9.7 km/h 92% 2.3 mm 77 W/m2
16:08 12.3 °C 11 °C 996.3 hPa NW 4.7 km/h 12.9 km/h 92% 2.5 mm 183 W/m2
16:13 12.4 °C 11.3 °C 995.9 hPa SSW 7.9 km/h 12.9 km/h 93% 2.3 mm 188 W/m2
16:18 12.5 °C 11.2 °C 996.3 hPa ENE 7.9 km/h 8 km/h 92% 2.5 mm 86 W/m2
16:23 12.6 °C 11.3 °C 996.3 hPa WSW 1.4 km/h 8 km/h 92% 2.5 mm 120 W/m2
16:28 12.6 °C 11.3 °C 996.3 hPa NNW 3.2 km/h 17.7 km/h 92% 2.5 mm 58 W/m2
16:33 12.6 °C 11.3 °C 996.3 hPa NW 3.2 km/h 8 km/h 92% 3.3 mm 40 W/m2
16:38 12.5 °C 11.2 °C 996.3 hPa WNW 13 km/h 17.7 km/h 92% 4.3 mm 26 W/m2
16:43 12.4 °C 11.1 °C 996.6 hPa NW 7.9 km/h 11.3 km/h 92% 5.1 mm 18 W/m2
16:48 12.3 °C 11.2 °C 996.6 hPa West 11.1 km/h 19.3 km/h 93% 7.1 mm 37 W/m2
16:53 12 °C 10.6 °C 996.6 hPa West 19.5 km/h 22.5 km/h 91% 8.6 mm 62 W/m2
16:58 11.8 °C 10.2 °C 997.0 hPa WSW 19.5 km/h 19.3 km/h 90% 8.9 mm 70 W/m2
17:03 11.9 °C 10.5 °C 996.6 hPa WNW 14.3 km/h 17.7 km/h 91% 8.4 mm 107 W/m2
17:08 12 °C 10.6 °C 997.0 hPa West 9.7 km/h 29 km/h 91% 8.4 mm 200 W/m2
17:13 11.9 °C 10.5 °C 997.0 hPa WNW 11.1 km/h 22.5 km/h 91% 8.1 mm 155 W/m2
17:18 11.9 °C 10.5 °C 997.0 hPa WNW 11.1 km/h 29 km/h 91% 7.9 mm 156 W/m2
17:23 11.8 °C 10.4 °C 997.0 hPa West 14.3 km/h 14.5 km/h 91% 7.9 mm 127 W/m2
17:28 11.8 °C 10.4 °C 997.0 hPa WNW 6.4 km/h 12.9 km/h 91% 7.9 mm 120 W/m2
17:33 11.7 °C 10.3 °C 997.0 hPa WNW 7.9 km/h 12.9 km/h 91% 7.1 mm 214 W/m2
17:38 11.7 °C 10.3 °C 997.0 hPa WSW 7.9 km/h 12.9 km/h 91% 5.8 mm 132 W/m2
17:43 11.7 °C 10.3 °C 997.0 hPa West 4.7 km/h 17.7 km/h 91% 4.8 mm 123 W/m2
17:48 11.7 °C 10.3 °C 997.0 hPa West 13 km/h 17.7 km/h 91% 2.3 mm 155 W/m2
17:53 11.8 °C 10.4 °C 997.0 hPa West 11.1 km/h 11.3 km/h 91% 1.0 mm 192 W/m2
17:58 11.9 °C 10.5 °C 997.0 hPa West 13 km/h 14.5 km/h 91% 0.5 mm 179 W/m2
18:03 11.9 °C 10.5 °C 997.0 hPa West 16.3 km/h 16.1 km/h 91% 0.5 mm 121 W/m2
18:08 12.1 °C 10.7 °C 997.0 hPa WNW 3.2 km/h 16.1 km/h 91% 0.2 mm 271 W/m2
18:13 12.3 °C 10.9 °C 997.0 hPa NW 11.1 km/h 20.9 km/h 91% 0.2 mm 171 W/m2
18:18 12.5 °C 11.1 °C 997.0 hPa WSW 3.2 km/h 11.3 km/h 91% 0.2 mm 171 W/m2
18:23 12.6 °C 11 °C 997.3 hPa West 11.1 km/h 20.9 km/h 90% 0.2 mm 156 W/m2
18:28 12.6 °C 11 °C 997.3 hPa WNW 6.4 km/h 11.3 km/h 90% 0.0 mm 227 W/m2
18:33 12.6 °C 11 °C 997.3 hPa West 3.2 km/h 17.7 km/h 90% 0.0 mm 120 W/m2
18:38 12.6 °C 11 °C 997.3 hPa West 9.7 km/h 9.7 km/h 90% 0.0 mm 125 W/m2
18:43 12.6 °C 11 °C 997.6 hPa WNW 6.4 km/h 11.3 km/h 90% 0.0 mm 146 W/m2
18:48 12.6 °C 11 °C 997.6 hPa West 14.3 km/h 14.5 km/h 90% 0.0 mm 139 W/m2
18:53 12.7 °C 11.1 °C 998.0 hPa West 11.1 km/h 12.9 km/h 90% 0.0 mm 95 W/m2
Juneau County Weather
Compliments of Weather Underground - 2 mb